Jamestown, NY

12:43 AM EST on December 11, 2019 (GMT -0500)
Chautauqua County-Jamestown

Weather History for KJHW - October, 2019

Change the Weather History Date:

Sunday, October 27, 2019

  Actual Average Record
Temperature  
Mean Temperature 54 °F -  
Max Temperature 60 °F 56 °F 78 °F (1989)
Min Temperature 48 °F 34 °F 18 °F (1987)
Degree Days  
Heating Degree Days 12    
Growing Degree Days 4 (Base 50)    
Moisture  
Dew Point 50 °F    
Average Humidity 92    
Maximum Humidity 100    
Minimum Humidity 74    
Precipitation  
Precipitation 0.33 in - - ()
Sea Level Pressure  
Sea Level Pressure 29.82 in    
Wind  
Wind Speed 14 mph (SW)    
Max Wind Speed 28 mph    
Max Gust Speed 33 mph    
Visibility 8 miles    
Events Rain    
Averages and records for this station are not official NWS values.
T = Trace of Precipitation, MM = Missing Value Source: NWS Daily Summary

Daily Weather History Graph

Daily Weather History Graph

Search for Another Location

Airport or City:

Astronomy

Oct. 27, 2019 Rise Set
Actual Time 7:43 AM EDT 6:17 PM EDT
Civil Twilight 7:14 AM EDT 6:46 PM EDT
Nautical Twilight 6:41 AM EDT 7:19 PM EDT
Astronomical Twilight 6:09 AM EDT 7:51 PM EDT
Moon 6:48 AM EDT (10/27) 6:27 PM EDT (10/27)
Length of Visible Light 11h 31m
Length of Day
10h 34m
Waning Crescent, 0% of the Moon is Illuminated
Oct 27
Waning Crescent
Oct 27
New
Nov 4
First Quarter
Nov 12
Full
Nov 19
Last Quarter

Hourly Weather History & Observations

Time (EDT) Temp. Dew Point Humidity Pressure Visibility Wind Dir Wind Speed Gust Speed Precip Events Conditions
12:26 AM 50.0 °F 48.2 °F 94% 29.88 in 10.0 mi SSE 8.1 mph 17.3 mph 0.00 in   Overcast
12:56 AM 50.0 °F 48.0 °F 93% 29.88 in 10.0 mi SSE 10.4 mph 17.3 mph 0.00 in Rain Light Rain
1:56 AM 51.1 °F 50.0 °F 96% 29.82 in 6.0 mi SSE 13.8 mph 23.0 mph 0.07 in Rain Rain
2:06 AM 51.8 °F 50.0 °F 94% 29.79 in 6.0 mi SSE 15.0 mph 26.5 mph 0.02 in Rain Light Rain
2:56 AM 53.1 °F 51.1 °F 93% 29.76 in 10.0 mi SSE 15.0 mph 26.5 mph 0.03 in Rain Light Rain
3:54 AM 53.6 °F 51.8 °F 94% 29.70 in 10.0 mi SSE 18.4 mph 26.5 mph 0.00 in Rain Light Rain
3:56 AM 53.1 °F 51.1 °F 93% 29.71 in 10.0 mi SSE 11.5 mph 26.5 mph 0.00 in Rain Light Rain
4:27 AM 53.6 °F 51.8 °F 94% 29.71 in 10.0 mi South 12.7 mph 26.5 mph 0.01 in Rain Light Rain
4:40 AM 53.6 °F 51.8 °F 94% 29.70 in 10.0 mi SSE 15.0 mph 26.5 mph 0.02 in Rain Light Rain
4:56 AM 53.1 °F 52.0 °F 96% 29.71 in 6.0 mi SSE 15.0 mph 21.9 mph 0.07 in Rain Rain
5:03 AM 53.6 °F 51.8 °F 94% 29.70 in 7.0 mi South 15.0 mph 21.9 mph 0.02 in Rain Rain
5:56 AM 54.0 °F 53.1 °F 97% 29.70 in 10.0 mi SSE 15.0 mph 31.1 mph 0.12 in Rain Light Rain
6:56 AM 55.0 °F 53.1 °F 93% 29.65 in 10.0 mi SSE 21.9 mph 28.8 mph 0.01 in   Overcast
7:56 AM 55.9 °F 54.0 °F 93% 29.65 in 10.0 mi South 17.3 mph 26.5 mph N/A   Overcast
8:30 AM 57.2 °F 55.4 °F 94% 29.63 in 10.0 mi South 17.3 mph 26.5 mph N/A   Overcast
8:56 AM 57.9 °F 55.0 °F 90% 29.65 in 10.0 mi SSW 20.7 mph 28.8 mph N/A   Overcast
9:17 AM 59.0 °F 55.4 °F 88% 29.64 in 10.0 mi SSW 19.6 mph 27.6 mph N/A   Overcast
9:56 AM 59.0 °F 54.0 °F 83% 29.66 in 9.0 mi SSW 17.3 mph 26.5 mph 0.00 in Rain Light Rain
10:56 AM 59.0 °F 51.1 °F 75% 29.68 in 10.0 mi SW 27.6 mph 33.4 mph 0.00 in   Overcast
11:56 AM 55.0 °F 46.9 °F 74% 29.74 in 10.0 mi WSW 21.9 mph 33.4 mph N/A   Overcast
12:56 PM 52.0 °F 46.9 °F 83% 29.77 in 10.0 mi SW 16.1 mph 24.2 mph N/A   Overcast
1:56 PM 50.0 °F 46.0 °F 86% 29.80 in 10.0 mi SW 17.3 mph 26.5 mph N/A   Overcast
2:56 PM 50.0 °F 46.0 °F 86% 29.83 in 10.0 mi WSW 18.4 mph 27.6 mph N/A   Overcast
3:56 PM 48.9 °F 46.0 °F 90% 29.86 in 8.0 mi WSW 16.1 mph 25.3 mph N/A   Overcast
4:32 PM 48.2 °F 46.4 °F 93% 29.86 in 2.5 mi SW 11.5 mph - 0.00 in Rain Light Rain
4:52 PM 48.2 °F 46.4 °F 93% 29.87 in 1.8 mi WSW 11.5 mph - 0.01 in Rain Light Rain
4:56 PM 48.0 °F 46.9 °F 96% 29.90 in 1.8 mi WSW 11.5 mph - 0.02 in Rain Light Rain
5:11 PM 48.2 °F 48.2 °F 100% 29.89 in 2.5 mi West 12.7 mph - 0.00 in Rain Light Rain
5:22 PM 48.2 °F 48.2 °F 100% 29.90 in 4.0 mi West 11.5 mph - 0.01 in Rain Light Rain
5:47 PM 48.2 °F 48.2 °F 100% 29.91 in 5.0 mi West 16.1 mph 25.3 mph 0.01 in Rain Light Rain
5:56 PM 48.9 °F 46.9 °F 93% 29.94 in 6.0 mi West 16.1 mph 24.2 mph 0.01 in Rain Light Rain
6:56 PM 48.9 °F 46.9 °F 93% 29.97 in 10.0 mi WNW 15.0 mph 21.9 mph 0.00 in   Overcast
7:08 PM 50.0 °F 46.4 °F 87% 29.96 in 10.0 mi West 12.7 mph 20.7 mph N/A   Overcast
7:56 PM 50.0 °F 48.0 °F 93% 29.99 in 10.0 mi West 10.4 mph - N/A   Overcast
8:56 PM 50.0 °F 48.0 °F 93% 30.00 in 10.0 mi West 8.1 mph - N/A   Overcast
9:56 PM 50.0 °F 48.0 °F 93% 30.02 in 10.0 mi West 10.4 mph - N/A   Overcast
10:24 PM 50.0 °F 48.2 °F 94% 30.02 in 10.0 mi West 10.4 mph - N/A   Overcast
10:56 PM 50.0 °F 46.9 °F 89% 30.06 in 10.0 mi West 11.5 mph - N/A   Overcast
11:56 PM 50.0 °F 46.9 °F 89% 30.07 in 10.0 mi West 8.1 mph - N/A   Overcast